TimeEST,TemperatureF,Dew PointF,Humidity,Sea Level PressureIn,VisibilityMPH,Wind Direction,Wind SpeedMPH,Gust SpeedMPH,PrecipitationIn,Events,Conditions,WindDirDegrees,DateUTC
12:15 AM,63.0,45.3,53,30.03,10.0,South,13.8,23.0,N/A,,Overcast,170,2012-11-13 05:15:00
12:35 AM,63.1,45.5,53,30.02,10.0,SSE,13.8,21.9,N/A,,Overcast,150,2012-11-13 05:35:00
12:55 AM,63.0,46.0,54,30.00,10.0,South,10.4,17.3,N/A,,Overcast,170,2012-11-13 05:55:00
1:15 AM,63.5,45.9,53,30.00,10.0,SSE,18.4,24.2,N/A,,Overcast,160,2012-11-13 06:15:00
1:35 AM,63.7,45.7,52,29.99,10.0,SSE,13.8,23.0,N/A,,Overcast,160,2012-11-13 06:35:00
1:55 AM,64.2,46.6,53,29.98,10.0,SSE,16.1,21.9,N/A,,Overcast,160,2012-11-13 06:55:00
2:35 AM,56.3,48.0,74,30.04,5.0,West,12.7,20.7,N/A,Rain,Rain,270,2012-11-13 07:35:00
2:55 AM,54.3,45.9,73,30.05,10.0,WNW,8.1,18.4,N/A,Rain,Light Rain,290,2012-11-13 07:55:00
3:15 AM,52.3,45.3,77,30.07,10.0,NW,5.8,-,N/A,,Drizzle,310,2012-11-13 08:15:00
3:35 AM,51.6,44.6,77,30.09,7.0,West,6.9,-,N/A,Rain,Rain,280,2012-11-13 08:35:00
3:55 AM,50.9,44.1,77,30.10,5.0,NW,8.1,-,N/A,Rain,Rain,310,2012-11-13 08:55:00
4:15 AM,50.2,43.7,78,30.10,7.0,NW,4.6,-,N/A,Rain,Light Rain,320,2012-11-13 09:15:00
4:55 AM,49.1,43.2,80,30.13,7.0,Calm,Calm,-,N/A,Rain,Rain,0,2012-11-13 09:55:00
5:15 AM,48.7,42.8,80,30.13,7.0,Calm,Calm,-,N/A,Rain,Rain,0,2012-11-13 10:15:00
5:35 AM,48.4,42.8,81,30.13,7.0,WSW,6.9,-,N/A,Rain,Rain,250,2012-11-13 10:35:00
5:55 AM,47.8,40.6,76,30.15,7.0,WSW,9.2,-,N/A,Rain,Rain,250,2012-11-13 10:55:00
6:15 AM,46.6,39.2,75,30.16,7.0,WSW,8.1,-,N/A,Rain,Rain,240,2012-11-13 11:15:00
6:55 AM,45.1,38.3,77,30.17,10.0,Calm,Calm,-,N/A,Rain,Light Rain,0,2012-11-13 11:55:00
7:15 AM,44.6,38.3,79,30.19,10.0,Calm,Calm,-,N/A,Rain,Light Rain,0,2012-11-13 12:15:00
7:35 AM,43.9,36.0,74,30.21,7.0,West,9.2,18.4,N/A,Rain,Rain,270,2012-11-13 12:35:00
7:55 AM,42.4,35.6,77,30.22,3.0,WSW,11.5,17.3,N/A,Rain,Light Rain,250,2012-11-13 12:55:00
8:15 AM,41.4,34.3,76,30.22,4.0,WSW,11.5,17.3,N/A,Rain,Rain,240,2012-11-13 13:15:00
8:35 AM,41.0,33.8,76,30.22,7.0,WSW,10.4,-,N/A,Rain,Light Rain,250,2012-11-13 13:35:00
8:55 AM,40.3,33.8,78,30.21,3.0,WSW,6.9,-,N/A,Rain,Rain,250,2012-11-13 13:55:00
9:15 AM,40.3,33.8,78,30.24,7.0,WSW,9.2,-,N/A,Rain,Light Rain,240,2012-11-13 14:15:00
9:35 AM,40.5,34.7,80,30.25,7.0,WSW,4.6,-,N/A,Rain,Light Rain,250,2012-11-13 14:35:00
9:55 AM,41.0,34.0,76,30.25,10.0,WSW,6.9,-,N/A,,Overcast,250,2012-11-13 14:55:00
10:15 AM,40.5,33.1,75,30.25,7.0,WSW,5.8,-,N/A,Rain,Light Rain,250,2012-11-13 15:15:00
10:35 AM,40.6,32.7,73,30.26,10.0,West,9.2,-,N/A,,Overcast,260,2012-11-13 15:35:00
10:55 AM,40.3,32.2,73,30.25,10.0,WSW,8.1,-,N/A,,Overcast,250,2012-11-13 15:55:00
11:15 AM,40.6,30.6,67,30.25,10.0,West,10.4,19.6,N/A,,Overcast,260,2012-11-13 16:15:00
11:35 AM,41.0,29.5,64,30.25,10.0,WSW,8.1,16.1,N/A,,Mostly Cloudy,250,2012-11-13 16:35:00
11:55 AM,42.1,29.7,61,30.25,10.0,WSW,13.8,17.3,N/A,,Mostly Cloudy,240,2012-11-13 16:55:00
12:15 PM,43.3,30.4,60,30.25,10.0,West,9.2,-,N/A,,Clear,270,2012-11-13 17:15:00
12:35 PM,41.2,24.4,51,30.25,10.0,West,11.5,23.0,N/A,,Scattered Clouds,260,2012-11-13 17:35:00
12:55 PM,42.1,22.6,46,30.26,10.0,WSW,8.1,21.9,N/A,,Scattered Clouds,250,2012-11-13 17:55:00
1:15 PM,42.4,23.9,48,30.27,10.0,WNW,5.8,-,N/A,,Mostly Cloudy,290,2012-11-13 18:15:00
1:55 PM,41.0,23.0,49,30.27,10.0,WNW,6.9,-,N/A,,Mostly Cloudy,300,2012-11-13 18:55:00
2:15 PM,41.0,23.5,50,30.28,10.0,NW,6.9,-,N/A,,Overcast,310,2012-11-13 19:15:00
2:35 PM,40.6,24.4,53,30.29,10.0,NW,9.2,-,N/A,,Overcast,310,2012-11-13 19:35:00
2:55 PM,40.5,25.2,54,30.29,10.0,WNW,4.6,-,N/A,,Overcast,300,2012-11-13 19:55:00
3:15 PM,40.5,25.2,54,30.30,10.0,NW,6.9,-,N/A,,Overcast,310,2012-11-13 20:15:00
3:35 PM,40.1,24.4,54,30.31,10.0,WNW,6.9,-,N/A,,Overcast,290,2012-11-13 20:35:00
3:55 PM,40.1,24.8,54,30.32,10.0,WNW,4.6,-,N/A,,Overcast,290,2012-11-13 20:55:00
4:15 PM,39.7,24.6,55,30.33,2.5,WNW,3.5,-,N/A,,Haze,300,2012-11-13 21:15:00
4:35 PM,39.4,23.7,54,30.33,10.0,NW,4.6,-,N/A,,Overcast,320,2012-11-13 21:35:00
4:55 PM,38.1,23.7,56,30.33,10.0,NW,4.6,-,N/A,,Scattered Clouds,310,2012-11-13 21:55:00
5:15 PM,37.4,23.5,57,30.35,10.0,WNW,5.8,-,N/A,,Clear,290,2012-11-13 22:15:00
5:35 PM,36.9,22.8,57,30.36,10.0,WNW,3.5,-,N/A,,Clear,290,2012-11-13 22:35:00
5:55 PM,36.7,22.1,56,30.37,10.0,WNW,3.5,-,N/A,,Clear,300,2012-11-13 22:55:00
6:15 PM,35.8,21.7,57,30.37,10.0,WNW,3.5,-,N/A,,Clear,300,2012-11-13 23:15:00
6:35 PM,35.6,21.6,57,30.38,10.0,NW,3.5,-,N/A,,Clear,310,2012-11-13 23:35:00
6:55 PM,35.6,21.2,56,30.39,10.0,West,3.5,-,N/A,,Clear,280,2012-11-13 23:55:00
7:15 PM,35.2,21.0,56,30.40,10.0,WNW,4.6,-,N/A,,Clear,300,2012-11-14 00:15:00
7:35 PM,35.1,21.7,58,30.40,10.0,WNW,5.8,-,N/A,,Clear,290,2012-11-14 00:35:00
7:55 PM,35.1,21.2,57,30.41,10.0,West,4.6,-,N/A,,Clear,280,2012-11-14 00:55:00
8:15 PM,34.7,21.7,59,30.42,10.0,West,6.9,-,N/A,,Clear,270,2012-11-14 01:15:00
8:35 PM,34.2,22.3,62,30.42,10.0,WNW,6.9,-,N/A,,Clear,290,2012-11-14 01:35:00
8:55 PM,34.2,21.9,61,30.42,10.0,Calm,Calm,-,N/A,,Clear,0,2012-11-14 01:55:00
9:15 PM,31.8,22.3,68,30.43,10.0,Calm,Calm,-,N/A,,Clear,0,2012-11-14 02:15:00
9:35 PM,32.9,22.1,65,30.43,10.0,NW,4.6,-,N/A,,Clear,320,2012-11-14 02:35:00
9:55 PM,32.9,22.1,65,30.43,10.0,NW,4.6,-,N/A,,Clear,320,2012-11-14 02:55:00
10:15 PM,33.4,21.9,63,30.44,10.0,WNW,5.8,-,N/A,,Clear,300,2012-11-14 03:15:00
10:35 PM,32.9,21.9,64,30.45,10.0,Calm,Calm,-,N/A,,Clear,0,2012-11-14 03:35:00
10:55 PM,29.1,21.6,73,30.46,10.0,Calm,Calm,-,N/A,,Clear,0,2012-11-14 03:55:00
11:15 PM,30.6,23.0,74,30.46,10.0,Calm,Calm,-,N/A,,Clear,0,2012-11-14 04:15:00
11:35 PM,30.9,22.6,71,30.47,10.0,Calm,Calm,-,N/A,,Clear,0,2012-11-14 04:35:00
11:55 PM,29.1,22.8,77,30.47,10.0,Calm,Calm,-,N/A,,Clear,0,2012-11-14 04:55:00